Weather History for Ajaccio, France

Change the Weather History Date:

Saturday, November 24, 2012

  Actual Average Record
Temperature  
Mean Temperature 56 °F -  
Max Temperature 66 °F 57 °F 71 °F (2002)
Min Temperature 47 °F 41 °F 32 °F (2005)
Degree Days  
Heating Degree Days 8    
Growing Degree Days 6 (Base 50)    
Moisture  
Dew Point 48 °F    
Average Humidity 79    
Maximum Humidity 94    
Minimum Humidity 52    
Precipitation  
Precipitation 0.00 in 0.10 in - ()
Sea Level Pressure  
Sea Level Pressure 30.21 in    
Wind  
Wind Speed 6 mph ()    
Max Wind Speed 9 mph    
Max Gust Speed -    
Visibility 6.9 miles    
Events      
Averages and records for this station are not official NWS values.
T = Trace of Precipitation, MM = Missing Value Source: Averaged Metar Reports

Daily Weather History Graph

Daily Weather History Graph

Search for Another Location

Airport:

Trip Planner

Search our weather history database for the weather conditions in past years. The results will help you decide how hot, cold, wet, or windy it might be!

Date:

Astronomy

Nov. 24, 2012 Rise Set
Actual Time 7:25 AM CET 4:57 PM CET
Civil Twilight 6:54 AM CET 5:27 PM CET
Nautical Twilight 6:20 AM CET 6:02 PM CET
Astronomical Twilight 5:47 AM CET 6:35 PM CET
Moon 2:36 PM CET 3:23 AM CET
Length of Visible Light 10h 33m
Length of Day
9h 31m
Waxing Gibbous, 85% of the Moon is Illuminated
Nov 24
Waxing Gibbous
Nov 28
Full
Dec 6
Last Quarter
Dec 13
New
Dec 20
First Quarter

Hourly Weather History & Observations

Time (CET) Temp. Dew Point Humidity Pressure Visibility Wind Dir Wind Speed Gust Speed Precip Events Conditions
12:00 AM 50.0 °F 48.2 °F 94% 30.24 in 6.2 mi NE 5.8 mph - N/A   Partly Cloudy
12:30 AM 51.8 °F 48.2 °F 88% 30.24 in 6.2 mi NE 5.8 mph - N/A   Unknown
1:00 AM 50 °F 47 °F 88% 30.25 in 11 mi NE 6.9 mph - -   Clear
1:00 AM 50.0 °F 48.2 °F 94% 30.24 in 6.2 mi NE 6.9 mph - N/A   Unknown
1:30 AM 50.0 °F 46.4 °F 87% 30.21 in 6.2 mi NE 8.1 mph - N/A   Unknown
2:00 AM 50.0 °F 46.4 °F 87% 30.21 in 6.2 mi NE 6.9 mph - N/A   Unknown
2:30 AM 48.2 °F 46.4 °F 93% 30.24 in 6.2 mi NE 6.9 mph - N/A   Unknown
3:00 AM 50.0 °F 46.4 °F 87% 30.21 in 6.2 mi NE 6.9 mph - N/A   Unknown
3:30 AM 48.2 °F 44.6 °F 87% 30.21 in 6.2 mi NE 6.9 mph - N/A   Unknown
4:00 AM 48.2 °F 44.6 °F 87% 30.21 in 6.2 mi NE 8.1 mph - N/A   Unknown
4:30 AM 48.2 °F 44.6 °F 87% 30.21 in 6.2 mi NE 8.1 mph - N/A   Unknown
5:00 AM 48.2 °F 44.6 °F 87% 30.21 in 6.2 mi NE 6.9 mph - N/A   Unknown
5:30 AM 48.2 °F 44.6 °F 87% 30.21 in 6.2 mi NE 8.1 mph - N/A   Unknown
6:00 AM 48.2 °F 44.6 °F 87% 30.21 in 6.2 mi NE 9.2 mph - N/A   Mostly Cloudy
6:30 AM 48.2 °F 44.6 °F 87% 30.21 in 6.2 mi NE 8.1 mph - N/A   Mostly Cloudy
7:00 AM 49 °F 45 °F 80% 30.23 in 19 mi NE 8.1 mph - -   Scattered Clouds
7:00 AM 48.2 °F 44.6 °F 87% 30.21 in 6.2 mi NE 6.9 mph - N/A   Mostly Cloudy
7:30 AM 48.2 °F 44.6 °F 87% 30.21 in 6.2 mi NE 8.1 mph - N/A   Mostly Cloudy
8:00 AM 48.2 °F 44.6 °F 87% 30.21 in - NE 5.8 mph - N/A   Clear
8:30 AM 50.0 °F 44.6 °F 82% 30.21 in - ENE 4.6 mph - N/A   Clear
9:00 AM 51.8 °F 46.4 °F 82% 30.24 in - ENE 4.6 mph - N/A   Clear
9:30 AM 53.6 °F 48.2 °F 82% 30.24 in - NE 6.9 mph - N/A   Clear
10:00 AM 57.2 °F 48.2 °F 72% 30.24 in - NE 4.6 mph - N/A   Clear
10:30 AM 59.0 °F 50.0 °F 72% 30.24 in - NE 4.6 mph - N/A   Clear
11:00 AM 60.8 °F 50.0 °F 68% 30.24 in - NE 3.5 mph - N/A   Clear
11:30 AM 64.4 °F 50.0 °F 59% 30.24 in - Variable 2.3 mph - N/A   Clear
12:00 PM 64.4 °F 51.8 °F 64% 30.21 in - Variable 3.5 mph - N/A   Clear
12:30 PM 64.4 °F 51.8 °F 64% 30.21 in - Variable 2.3 mph - N/A   Clear
1:00 PM 65 °F 51 °F 52% 30.22 in 25 mi West 2.3 mph - -   Scattered Clouds
1:00 PM 64.4 °F 51.8 °F 64% 30.21 in 6.2 mi Variable 2.3 mph - N/A   Mostly Cloudy
1:30 PM 64.4 °F 51.8 °F 64% 30.18 in 6.2 mi West 3.5 mph - N/A   Mostly Cloudy
2:00 PM 64.4 °F 50.0 °F 59% 30.18 in 6.2 mi WSW 5.8 mph - N/A   Mostly Cloudy
2:30 PM 66.2 °F 51.8 °F 60% 30.18 in 6.2 mi WSW 5.8 mph - N/A   Mostly Cloudy
3:00 PM 64.4 °F 51.8 °F 64% 30.18 in 6.2 mi WSW 8.1 mph - N/A   Mostly Cloudy
3:30 PM 64.4 °F 53.6 °F 68% 30.18 in 6.2 mi WSW 8.1 mph - N/A   Mostly Cloudy
4:00 PM 64.4 °F 55.4 °F 73% 30.18 in 6.2 mi WSW 5.8 mph - N/A   Mostly Cloudy
4:30 PM 64.4 °F 55.4 °F 73% 30.18 in 6.2 mi WSW 3.5 mph - N/A   Mostly Cloudy
5:00 PM 62.6 °F 53.6 °F 72% 30.18 in 6.2 mi Calm Calm - N/A   Scattered Clouds
5:30 PM 60.8 °F 53.6 °F 77% 30.18 in 6.2 mi ENE 2.3 mph - N/A   Scattered Clouds
6:00 PM 57.2 °F 51.8 °F 82% 30.18 in - NE 6.9 mph - N/A   Clear
6:30 PM 55.4 °F 51.8 °F 88% 30.18 in - NE 6.9 mph - N/A   Clear
7:00 PM 54 °F 49 °F 79% 30.22 in 9 mi NE 5.8 mph - -   Clear
7:30 PM 53.6 °F 48.2 °F 82% 30.21 in - NE 4.6 mph - N/A   Clear
8:00 PM 51.8 °F 48.2 °F 88% 30.21 in - NNE 8.1 mph - N/A   Clear
8:30 PM 51.8 °F 48.2 °F 88% 30.21 in - NE 6.9 mph - N/A   Clear
9:00 PM 51.8 °F 48.2 °F 88% 30.21 in - NE 6.9 mph - N/A   Clear
9:30 PM 51.8 °F 46.4 °F 82% 30.21 in - NE 8.1 mph - N/A   Clear
10:04 PM 50.0 °F 46.4 °F 87% 30.21 in - NNE 8.1 mph - N/A   Clear
10:30 PM 51.8 °F 46.4 °F 82% 30.21 in - NNE 8.1 mph - N/A   Clear
11:00 PM 50.0 °F 46.4 °F 87% 30.21 in - NE 8.1 mph - N/A   Clear
11:30 PM 50.0 °F 44.6 °F 82% 30.21 in - NE 6.9 mph - N/A   Clear